Location: Luxembourg
(49.6117°N, 6.1300°E)
Time: 14:45:50
(UTC+01:00)

POLYITAN 1 - Visible Passes

Search period start: 14 February 2026 00:00
Search period end: 24 February 2026 00:00
Orbit: 476 x 485 km, 98.1° (Epoch: 13 February)

Date Brightness Start Highest point End Pass type
(mag) Time Alt. Az. Time Alt. Az. Time Alt. Az.
14 Feb ? 19:38:43 10° WSW 19:40:10 12° W 19:41:39 10° WNW visible
15 Feb ? 06:58:22 10° NNE 07:01:38 33° E 07:04:52 10° SSE visible
15 Feb ? 19:11:21 10° SSW 19:14:14 22° W 19:17:07 10° NW visible
16 Feb ? 06:33:15 10° NE 06:35:44 17° E 06:38:10 10° SE visible
16 Feb ? 18:44:54 10° S 18:48:20 43° W 18:51:47 10° NNW visible
18 Feb ? 19:27:59 10° SW 19:30:15 16° W 19:32:31 10° NW visible
19 Feb ? 06:48:42 10° NE 06:51:41 25° E 06:54:39 10° SSE visible
19 Feb ? 19:01:02 10° SSW 19:04:12 30° W 19:07:25 10° NW visible
20 Feb ? 06:23:50 10° ENE 06:25:35 13° E 06:27:21 10° ESE visible
20 Feb ? 18:34:41 10° S 18:38:13 60° WSW 18:41:48 10° NNW visible
21 Feb ? 19:44:54 10° WSW 19:46:00 11° W 19:47:06 10° WNW visible
22 Feb ? 19:17:02 10° SW 19:19:48 21° W 19:22:36 10° NW visible
23 Feb ? 06:38:37 10° NE 06:41:11 18° E 06:43:44 10° SE visible
23 Feb ? 18:50:17 10° S 18:53:40 40° W 18:57:05 10° NNW visible
